This demonstration page uses our WeatherBlox Daily Observations layout. Learn more.

Left ArrowRight Arrow

40.92945, -100.16068

Hourly Observations for April 3, 2015

Temp ( °F °C ) Dew Point ( °F °C ) Humidity (%) Winds ( mph kmh ) Pressure ( in mb ) Visibility ( mi km ) Precip ( " mm )
12:15 am 00:15 Cloudy 37 2.8 35 1.6 92 92 N 8 13 30.18 1022 10 16 N/A
12:35 am 00:35 Cloudy 37 3 36 2 93 93 N 8 13 30.18 1022 10 16 N/A
12:55 am 00:55 Cloudy 37 3 35 1.8 92 92 NNW 7 11 30.21 1023 10 16 N/A
1:15 am 01:15 Cloudy 37 3 35 1.9 93 93 NNW 9 15 30.18 1022 10 16 N/A
1:35 am 01:35 Cloudy with Light Rain 37 3 36 2 93 93 NNW 12 19 30.18 1022 10 16 N/A
1:55 am 01:55 Cloudy with Light Rain 38 3.4 35 1.8 89 89 N 9 15 30.21 1023 10 16 0.01 0.25
2:15 am 02:15 Cloudy 38 3.5 34 1.3 86 86 NNE 8 13 30.21 1023 10 16 N/A
2:35 am 02:35 Cloudy 38 3.4 34 1.2 86 86 N 6 9 30.24 1024 10 16 N/A
2:55 am 02:55 Cloudy 38 3.2 34 1.3 88 88 N 7 11 30.21 1023 10 16 N/A
3:15 am 03:15 Cloudy 38 3.2 35 1.4 88 88 NNW 8 13 30.24 1024 10 16 N/A
3:35 am 03:35 Cloudy 38 3.1 32 -0.1 80 80 N 14 22 30.24 1024 10 16 N/A
3:55 am 03:55 Cloudy 36 2.2 30 -1.3 78 78 N 15 24 30.27 1025 10 16 N/A
4:15 am 04:15 Cloudy 35 1.9 29 -1.7 77 77 N 16 26 30.27 1025 10 16 N/A
4:35 am 04:35 Cloudy 35 1.5 29 -1.7 80 80 N 13 20 30.30 1026 10 16 N/A
4:55 am 04:55 Partly Cloudy 34 1.1 28 -2 80 80 N 12 19 30.30 1026 10 16 N/A
5:15 am 05:15 Partly Cloudy 33 0.8 28 -2.4 79 79 N 10 17 30.30 1026 10 16 N/A
5:35 am 05:35 Partly Cloudy 33 0.5 28 -2.3 82 82 N 8 13 30.33 1027 10 16 N/A
5:55 am 05:55 Clear 32 0.2 27 -2.9 80 80 N 10 17 30.33 1027 10 16 N/A
6:15 am 06:15 Clear 32 undefined 26 -3.2 79 79 N 10 17 30.33 1027 10 16 N/A
6:35 am 06:35 Clear 31 -0.3 26 -3.5 79 79 NNW 9 15 30.33 1027 10 16 N/A
6:55 am 06:55 Clear 30 -1 26 -3.5 83 83 NNW 9 15 30.39 1029 10 16 N/A
7:15 am 07:15 Clear 31 -0.8 25 -4 79 79 NNW 13 20 30.39 1029 10 16 N/A
7:35 am 07:35 Sunny 30 -1.1 25 -4 81 81 NNW 10 17 30.39 1029 10 16 N/A
7:55 am 07:55 Sunny 30 -1 24 -4.5 77 77 NNW 16 26 30.42 1030 10 16 N/A
8:15 am 08:15 Sunny 31 -0.7 24 -4.4 76 76 NNW 13 20 30.42 1030 10 16 N/A
8:35 am 08:35 Sunny 31 -0.5 24 -4.5 75 75 NNW 17 28 30.42 1030 10 16 N/A
8:55 am 08:55 Sunny 31 -0.3 24 -4.6 73 73 NNW 15 24 30.42 1030 10 16 N/A
9:15 am 09:15 Sunny 32 undefined 25 -4.1 74 74 NNW 18 30 30.42 1030 10 16 N/A
9:35 am 09:35 Sunny 32 0.1 24 -4.2 73 73 NNW 20 31 30.45 1031 10 16 N/A
9:55 am 09:55 Sunny 33 0.5 25 -4 72 72 NNW 18 30 30.42 1030 10 16 N/A
10:15 am 10:15 Sunny 34 1.1 25 -3.7 71 71 NNW 21 33 30.42 1030 10 16 N/A
10:35 am 10:35 Sunny 35 1.6 25 -3.8 68 68 NNW 20 31 30.42 1030 10 16 N/A
10:55 am 10:55 Sunny 37 2.5 27 -2.9 68 68 NNW 16 26 30.45 1031 10 16 N/A
11:15 am 11:15 Sunny 37 3 26 -3.4 63 63 N 17 28 30.45 1031 10 16 N/A
11:35 am 11:35 Sunny 39 3.7 26 -3.6 59 59 NNW 17 28 30.42 1030 10 16 N/A
11:55 am 11:55 Sunny 40 4.5 25 -3.8 55 55 NNW 17 28 30.42 1030 10 16 N/A
12:15 pm 12:15 Sunny 41 4.9 24 -4.5 51 51 NNW 16 26 30.42 1030 10 16 N/A
12:35 pm 12:35 Partly Cloudy 41 4.8 24 -4.6 51 51 NNW 12 19 30.42 1030 10 16 N/A
12:55 pm 12:55 Sunny 44 6.6 23 -5.1 43 43 N 17 28 30.36 1028 10 16 N/A
1:15 pm 13:15 Sunny 45 7.3 24 -4.4 44 44 NNW 15 24 30.36 1028 10 16 N/A
1:35 pm 13:35 Sunny 46 7.8 20 -6.4 36 36 NW 17 28 30.36 1028 10 16 N/A
1:55 pm 13:55 Sunny 47 8.3 22 -5.7 37 37 NNW 16 26 30.36 1028 10 16 N/A
2:15 pm 14:15 Sunny 47 8.4 18 -7.7 31 31 NW 16 26 30.36 1028 10 16 N/A
2:35 pm 14:35 Sunny 48 9 19 -7.5 31 31 NW 12 19 30.36 1028 10 16 N/A
2:55 pm 14:55 Sunny 48 9.1 17 -8.4 28 28 N 13 20 30.36 1028 10 16 N/A
3:15 pm 15:15 Sunny 49 9.7 17 -8.5 27 27 NNW 6 9 30.30 1026 10 16 N/A
3:35 pm 15:35 Sunny 51 10.3 17 -8.3 26 26 NNW 9 15 30.30 1026 10 16 N/A
3:55 pm 15:55 Sunny 51 10.4 16 -9 25 25 NNW 14 22 30.30 1026 10 16 N/A
4:15 pm 16:15 Sunny 51 10.5 16 -8.8 25 25 NNW 12 19 30.30 1026 10 16 N/A
4:35 pm 16:35 Sunny 52 10.9 17 -8.1 26 26 NW 7 11 30.27 1025 10 16 N/A
4:55 pm 16:55 Sunny 52 11 15 -9.4 23 23 NW 14 22 30.27 1025 10 16 N/A
5:15 pm 17:15 Sunny 52 11.1 15 -9.7 22 22 WNW 7 11 30.27 1025 10 16 N/A
5:35 pm 17:35 Partly Cloudy 52 11.3 17 -8.6 24 24 NNW 8 13 30.27 1025 10 16 N/A
5:55 pm 17:55 Sunny 52 11.3 15 -9.2 23 23 N 5 7 30.27 1025 10 16 N/A
6:15 pm 18:15 Sunny 53 11.4 16 -9.1 23 23 NNW 7 11 30.27 1025 10 16 N/A
6:35 pm 18:35 Sunny 52 11.2 15 -9.6 22 22 WSW 6 9 30.27 1025 10 16 N/A
6:55 pm 18:55 Partly Cloudy 52 11 15 -9.3 23 23 W 8 13 30.27 1025 10 16 N/A
7:15 pm 19:15 Sunny 50 10.2 16 -8.9 25 25 WSW 7 11 30.27 1025 10 16 N/A
7:35 pm 19:35 Sunny 49 9.4 19 -7.1 31 31 WSW 5 7 30.30 1026 10 16 N/A
7:55 pm 19:55 Sunny 45 7.1 20 -6.4 38 38 SW 7 11 30.30 1026 10 16 N/A
8:15 pm 20:15 Clear 44 6.6 21 -6.1 40 40 SW 8 13 30.30 1026 10 16 N/A
8:35 pm 20:35 Clear 44 6.4 22 -5.4 43 43 SW 8 13 30.30 1026 10 16 N/A
8:55 pm 20:55 Clear 42 5.6 24 -4.5 49 49 SSW 8 13 30.30 1026 10 16 N/A
9:15 pm 21:15 Clear 42 5.4 25 -3.9 52 52 SSW 8 13 30.33 1027 10 16 N/A
9:35 pm 21:35 Clear 38 3.5 25 -3.7 60 60 S 7 11 30.33 1027 10 16 N/A
9:55 pm 21:55 Clear 36 2.4 26 -3.6 65 65 SSW 7 11 30.36 1028 10 16 N/A
10:15 pm 22:15 Clear 36 2.2 25 -3.8 65 65 SSW 6 9 30.36 1028 10 16 N/A
10:35 pm 22:35 Clear 36 2.3 26 -3.5 66 66 S 7 11 30.36 1028 10 16 N/A
10:55 pm 22:55 Clear 38 3.2 25 -3.7 61 61 S 6 9 30.33 1027 10 16 N/A
11:15 pm 23:15 Clear 38 3.6 25 -4 58 58 SSW 5 7 30.33 1027 10 16 N/A
11:35 pm 23:35 Clear 38 3.2 25 -3.9 60 60 SSW 6 9 30.33 1027 10 16 N/A
11:55 pm 23:55 Clear 37 2.6 26 -3.4 65 65 SSW 5 7 30.33 1027 10 16 N/A

Powered by AerisWeather